星链-4266 (STARLINK-4266 )

导读

STARLINK-4266是美国太空探索技术公司(SpaceX)星链星座的成员卫星,于2022年6月17日发射升空。星链项目旨在构建全球卫星互联网星座,为全球偏远地区、海洋等网络盲区提供高速互联网接入服务,该卫星承担着扩展星座服务覆盖范围、提升星座网络容量与稳定性的任务。

Basic Information
目录编号:
52869
目录名称:
STARLINK-4266
国际标识:
2022-062AR
轨道中心:
EARTH
卫星名称:
星链-4266
卫星全名:
星链-4266 (STARLINK-4266 )
卫星状态:
在轨 (已飞行1461 天)
发射日期:
2022-06-17 UTC
国别 :
美国 (US)
星等 :
--
Orbit Information
数据来源 国际轨道数据 AOE轨道数据
星历时间 2026-06-17T09:37:46+0800
11小时前
查看轨道信息
2026-06-13T16:00:00+0800
4天前
查看轨道信息
半长轴 6917.896km 6917.903km
偏心率 0.0001211 0.0001059
轨道倾角 53.161° 53.159°
近地点辐角 79.052° 77.585°
升交点赤经 287.898° 304.688°
平近点角 281.061° 146.036°
近地点 538.921km 539.033km
远地点 540.597km 540.499km
周期 95.438分钟 95.438分钟
每日圈数 15.08835 15.088327
Detailed Information
固有亮度:
5
最大亮度:
2.5
卫星平台:
Starlink v1.5
覆盖范围:
全球
运营商:
太空探索技术公司
运营商所在国:
美国
制造商(研发单位):
太空探索技术公司
制造商所在国:
美国
使用方式:
暂无
Satellite Introduction
星链(Starlink)计划是由太空探索技术公司(SpaceX)提出的一个巨型低轨卫星互联网星座项目,计划在2019年至2024年间在太空搭建由约1.2万颗卫星组成的“星链”网络,其中1584颗将部署在地球上空550千米处的近地轨道,并从2020年开始工作。该卫星仍在工作。
2D Orbit Map
3D Orbit Map
Orbit Altitude Analysis Chart
Orbit Inclination Analysis Chart
Orbit Comprehensive Analysis Chart
View Comprehensive Chart